Location: Schommer Observatory
(40.5200°N, 74.4500°W)
Time: 03:34:22
(UTC-05:00)

N. Korean satellite - Pass Details

Date: 15 November 2017
Orbit: 460 x 515 km, 97.2° (Epoch: 18 November)

Event Time Altitude Azimuth Distance (km) Brightness Sun altitude
Rises 18:22:18 0° 183° (S) 2,473 10.3 -19.4°
Reaches altitude 10° 18:24:25 10° 192° (SSW) 1,607 9.4 -19.8°
Maximum altitude 18:27:39 39° 262° (W) 720 7.9 -20.5°
Drops below altitude 10° 18:30:58 10° 332° (NNW) 1,639 9.5 -21.1°
Sets 18:33:09 0° 341° (NNW) 2,530 10.4 -21.5°
